OneWeb SL0362

operational
NORAD ID: 49288 Int'l Des: 2021-090 Owner: ONEWEBN Country: UK Constellation: oneweb
LEOCIRCULARPOLARONEWEB_TYPE

About OneWeb SL0362

Description loading...

Live Position

Loading 3D Globe...

Upcoming Passes

Altitude History

Altitude vs Time

uPlot chart will show altitude changes over time

Two-Line Element Set

1 49288U 21090K 25257.81064487 .00000029 00000-0 40038-4 0 9992
2 49288 87.9286 359.7491 0001702 107.7055 252.4263 13.19725303190598
Epoch: Sep 14, 2025 • Age: 19 hours

Current Status

Altitude 1205.9 km
Velocity 7.25 km/s
Sub-Earth Point -49.81°S, 34.96°W
Launch Date Oct 14, 2021
Age 3.9 years
Type internet

Technical Details

Classification Payload
Mass 148.00 kg
Dry Mass 140.00 kg
Total Mass 148.00 kg
Length 1.30 m
Diameter 1.00 m
Span 5.00 m
Shape Trapezoid+2 pan
Manufacturer ONEWUS
Bus Type ARROW
Phase Status In Orbit
Owner/State ONEWEBN/UK

Large Constellations

Loading constellations...